CAPE
283 701 1114 1232 1237 1176 909 921 902 988 1138 1087 1345 1546 1633 1698 1787 1913 2054 2312 2313 2294 2378 2252 2355 1946 1786 1484 1573 1603 1955 2527 2550 2339 2576 2424 1353 1282 1139 1717 990 655 1923
376 479 1103 1093 1295 1154 1036 1034 1004 1248 1229 1269 1350 1640 1692 1868 1999 2090 1977 2041 2337 1775 1756 1548 1594 1798 1560 1491 1273 1632 1549 1871 2364 2462 2437 2198 1750 1507 1334 2145 2351 1706 1428
97 277 568 1214 1650 1212 1202 1253 1070 1295 1178 1352 1417 1479 1526 1608 1673 2091 2038 1843 1823 2263 2464 1786 1674 1481 1505 1556 1718 2741 3038 2924 2694 2544 1624 376 1049 1671 1095 1291 2176 2508 2326
280 84 128 1575 1747 1548 1028 1167 1091 1236 1248 1434 1338 1453 1093 1364 1518 1612 1609 1640 1687 1713 1830 2262 2390 1863 2144 1427 1413 1637 2116 2330 1725 1664 638 478 673 1487 1449 1342 1783 2347 2482
314 415 546 1529 1731 1353 1301 1278 1267 1257 1532 1200 691 958 355 393 542 1396 1589 1645 1615 1619 1611 1653 1869 2193 2188 2500 2594 2297 2096 1660 1213 1758 1423 1463 1240 1630 1685 1119 784 1656 2015
628 1125 1035 999 1422 1756 1319 1543 1698 993 1330 820 957 583 293 98 115 369 1098 1556 1485 1484 1570 1509 1418 1380 1513 1963 2008 1912 1784 930 1017 635 784 1025 1766 1974 2210 1982 1103 724 963
782 1076 1084 1219 1095 1434 1727 1779 1735 1318 969 564 262 53 156 181 50 259 355 773 1645 1682 1732 1695 1637 1509 1306 1201 1269 1433 1473 580 1119 1149 823 297 1076 1406 1831 1991 2034 1233 798
1019 688 971 1585 1620 1483 1447 1417 1233 991 430 186 7 7 96 145 25 62 388 348 780 1496 1662 1437 1658 1343 1330 1257 1143 962 1288 1025 671 864 596 181 218 205 497 1647 1993 1928 1399
864 767 842 796 1406 1467 1220 967 859 985 537 201 6 34 21 1 1 8 422 441 396 752 1444 1307 1616 1596 1477 1289 1128 887 807 1488 1243 428 382 735 456 345 430 870 1769 1714 1866
621 667 746 758 815 1022 1142 1233 1084 1101 668 252 142 151 21 0 0 12 173 335 442 857 1193 1492 1397 1327 1460 1329 1269 1169 755 849 145 490 967 607 668 659 1111 1187 1577 1866 1913
783 714 703 712 717 399 586 1179 1258 1250 973 480 247 263 38 0 0 8 18 239 463 734 993 1303 1332 1712 1615 1417 1155 729 828 483 612 643 699 388 376 597 1095 1318 1168 1815 1776
691 613 683 666 684 611 754 1264 1355 1230 882 798 466 307 70 5 0 0 0 70 235 585 1025 943 732 920 1674 1313 1441 495 322 549 1079 763 727 608 546 957 1433 1008 1153 1141 1295
702 645 668 832 809 671 555 1224 1196 1151 695 533 446 307 308 265 5 1 0 0 12 107 292 422 419 523 882 1212 1134 700 513 620 699 591 687 283 419 1037 1371 1556 1212 1103 1047
638 759 801 877 1148 1064 1098 1153 1125 1063 767 450 495 484 365 432 269 46 13 6 1 113 369 160 338 460 1153 1127 906 668 732 782 650 696 793 747 422 851 1468 1462 1242 989 956
719 817 1018 1102 1331 1273 1585 1341 1212 995 811 399 599 547 472 316 548 378 192 228 203 567 376 118 213 393 807 1093 494 708 804 877 811 678 1269 902 697 1022 1355 1208 1281 908 978
787 912 1026 1198 1475 1517 1528 1487 1388 1205 1351 565 406 996 1143 654 560 897 552 659 594 334 306 525 184 529 813 421 397 535 850 968 1001 1002 1286 1428 759 677 751 818 1737 1575 1459
827 920 1183 1360 1555 1658 1651 1649 1494 1384 1207 674 551 423 1097 972 808 610 575 815 686 627 484 360 416 728 390 286 245 1036 907 960 1093 733 792 1425 1199 602 386 623 1866 2055 1768
964 1054 1318 1405 1532 1755 1835 1655 1702 1302 1102 1066 773 543 692 914 1041 873 648 422 530 743 219 326 418 172 151 294 526 742 921 920 1230 1012 801 752 1195 1301 551 430 831 1463 1780
1281 1292 1444 1490 1463 1878 1970 1778 1640 1543 1192 495 182 143 697 1049 1123 820 792 638 1272 885 877 695 300 285 352 401 660 952 648 835 946 856 850 752 866 814 1433 285 210 738 1280
1442 1706 1955 1929 1877 1416 1487 1763 1617 1446 1404 459 161 191 230 380 751 846 821 930 722 685 880 1030 921 962 853 619 611 688 708 839 823 971 534 758 682 672 345 1267 743 201 339
1506 1838 2187 2309 1231 0 47 1695 1892 1814 1504 889 726 577 205 783 359 274 222 466 871 795 523 565 707 875 1008 1072 855 940 824 850 773 819 836 138 202 69 277 864 448 424 270
1612 1909 2432 2446 1491 429 371 1912 1855 1368 1322 1166 1402 905 882 924 450 159 95 170 642 586 1169 813 1041 756 1104 1030 719 630 413 803 850 782 240 79 29 95 80 95 184 174 531
1578 1908 2292 2702 2906 2182 2036 1938 1981 1861 1359 1297 1379 1283 1280 971 297 240 218 226 157 712 505 896 1166 489 883 769 1088 875 359 328 422 349 210 34 80 32 204 204 145 98 382
1245 1401 1995 2584 2939 2934 2711 2377 2100 2175 1468 1603 1264 1332 1152 1125 1133 1013 667 398 368 382 205 956 1133 949 1290 462 870 679 969 952 525 90 192 80 209 92 50 40 42 68 378
1339 921 1665 2509 2789 2972 2968 2667 2438 2142 1490 1549 1378 1372 1060 684 1380 1385 1173 1208 1217 645 237 333 506 757 880 935 743 809 914 624 672 631 119 438 259 226 99 46 138 152 563
1611 1055 1229 2385 2760 2994 2905 3046 3174 2508 1940 1471 1396 1389 1341 1216 1487 1320 1259 1483 972 1203 1221 1407 1309 1069 879 613 779 573 878 726 568 364 497 119 104 97 123 127 96 105 127
CIN
-21 -6 0 0 0 0 0 0 0 0 0 -1 -1 -1 0 0 0 0 0 0 0 0 0 0 0 0 -7 -27 -29 -32 -10 0 0 0 0 0 -33 -42 -51 -6 -37 -73 -2
-33 -23 0 0 0 0 0 0 0 0 0 -1 -1 0 0 0 0 0 0 0 0 0 0 -5 -11 -7 -15 -23 -45 -26 -27 -15 -2 -3 -2 -3 -16 -32 -37 -6 -2 -10 -36
-67 -43 -11 -1 0 -2 0 0 0 0 0 0 0 -1 0 0 0 0 0 0 0 0 0 0 -7 -16 -17 -20 -7 0 0 0 -4 -8 -11 -41 -35 -26 -50 -41 -3 0 0
-11 -52 -52 0 0 0 -6 -2 0 0 0 0 -1 0 -2 0 -1 0 0 0 0 0 0 0 0 0 0 -13 -16 -4 0 -2 -20 -24 -7 -8 -26 -32 -33 -39 -24 -1 0
-1 -2 -29 -1 -1 -3 -4 -3 -1 -1 0 -1 -6 -4 -22 -11 -7 0 0 0 0 0 0 -1 0 0 0 0 0 0 0 -14 -27 -8 -1 -1 -1 -23 -17 -41 -73 -26 -5
-3 0 -28 -16 -4 0 -3 0 0 -18 -4 -20 -13 -14 -43 -49 -43 -1 0 0 0 0 0 -1 -3 -3 -5 -1 0 0 -3 -26 -19 -9 -13 -13 -10 -16 -2 0 -29 -62 -63
-1 -2 -9 -10 -13 -2 0 0 0 -1 -10 -36 -76 -67 -31 -43 -83 -25 -4 -1 0 0 0 0 0 0 -12 -17 -14 -9 -12 -53 -34 -3 -1 -1 -7 -30 -7 -2 -3 -41 -69
-8 -2 -3 0 0 -1 0 0 -1 -5 -22 -67 -64 -89 -67 -44 -57 -75 -8 -7 -1 0 0 0 0 -2 -4 -12 -23 -35 -22 -30 -13 -3 -1 -9 -51 -65 -53 -10 -3 -12 -35
-4 -3 -2 -2 0 0 0 -6 -13 -11 -21 -55 -78 -63 -70 -11 -65 -94 -6 -5 -5 -2 0 -1 0 0 -2 -15 -28 -36 -41 -18 -17 -4 -3 -17 -45 -44 -48 -37 -7 -15 -12
-4 -2 -4 -1 -1 0 0 0 -2 -4 -11 -38 -53 -44 -50 0 0 -37 -19 -5 -8 0 0 0 0 -2 -3 -19 -25 -29 -56 -41 -38 -10 -13 -35 -34 -40 -22 -15 -9 -6 -4
-4 -3 -4 -2 -3 -13 -2 0 -1 0 0 -12 -25 -15 -42 0 0 -40 -63 -2 -4 -1 -1 0 -1 0 -5 -15 -38 -61 -67 -22 -15 -2 -13 -46 -51 -37 -22 -12 -20 -5 -4
-3 -4 -3 -3 -2 -1 -4 -5 0 -1 0 -1 -3 -1 -12 -11 0 0 0 -5 -7 0 0 -8 -19 -28 -16 -4 -16 -74 -59 -102 -20 -33 -52 -52 -50 -41 -23 -40 -27 -28 -16
-3 -3 -4 -2 -4 -20 -15 -11 -3 -6 -2 -2 -6 -4 -3 -1 -55 -80 0 0 -63 -16 -9 -15 -27 -28 -4 -10 -20 -2 -104 -2 -3 -8 -35 -69 -67 -48 -29 -15 -20 -19 -20
-24 -4 -2 -3 -1 -2 -29 -19 -7 -11 -8 -11 -3 0 -6 -2 -2 -10 -23 -3 -9 -1 -3 -4 -1 -1 -2 -14 -1 -3 -2 -18 -3 -3 -24 -55 -73 -54 -22 -14 -9 -12 -12
-9 -4 -2 -1 -2 -2 -1 -1 -12 -3 -44 -26 -4 -4 -2 -3 -3 -6 -1 -1 -11 -13 -8 -2 -11 -2 -12 -9 -1 -2 -2 -9 -3 -2 -30 -60 -61 -46 -28 -24 -9 -14 -13
-3 -2 -2 -2 -2 -1 -1 -5 -6 -7 -6 -65 -22 -3 0 -2 -3 -3 -7 -3 -6 -17 -24 -1 -5 -4 -2 -2 -3 -2 -2 -1 -2 -4 -14 -36 -58 -64 -55 -49 -1 -3 -1
-3 -4 -4 -2 -1 -1 -4 -10 -2 -2 -23 -22 -36 -12 -1 -2 -5 -1 -11 -5 -3 0 -17 -1 -2 -1 -2 -2 -2 -4 -3 -2 -4 -1 -1 -21 -39 -78 -91 -74 -4 0 0
-3 -2 -2 -3 -2 -1 -1 -2 -2 -3 -22 -29 -53 -22 -18 -2 0 -1 -12 -7 -7 -4 -2 -3 -1 -2 -3 -1 0 -2 -3 -9 -5 -1 -1 -2 -34 -12 -88 -94 -65 -22 -3
-4 -2 -2 -2 -2 -3 -2 -4 -7 -4 -23 -105 -104 -99 -22 -2 0 -4 -6 -11 -4 -2 -2 -2 -2 -1 -4 -5 -5 -5 -2 -5 -3 -4 -5 -3 -2 -2 -14 -86 -103 -60 -25
-3 -4 -3 -2 -32 -58 -42 -4 -13 -20 -27 -102 -136 -138 -88 -39 -11 -3 -4 -4 -17 -3 -3 -8 -8 -19 -8 -2 -6 -7 -7 -5 -14 -3 -20 -12 -4 -2 -25 -33 -64 -98 -100
-4 -2 -1 -4 -127 -1 -252 -26 -7 -8 -18 -58 -60 -65 -78 -3 -23 -41 -49 -15 -1 -4 -11 -10 -5 -11 -10 -2 -7 -4 -5 -2 -16 -5 -11 -48 -22 -61 -8 -5 -2 -6 -71
-11 -2 -7 -22 -125 -247 -242 -24 -15 -23 -36 -14 -14 -46 -13 0 -31 -77 -81 -58 -7 -8 -1 -10 -3 -17 -13 -4 -8 -17 -6 -7 -3 -13 -8 -73 -8 -61 -63 -32 -14 -11 -3
-32 -30 -13 -24 -30 -75 -56 -43 -7 -6 -19 -11 -11 -9 -1 -9 -61 -62 -71 -57 -42 -10 -12 -12 -5 -13 -10 -7 -1 -4 -23 -13 -9 -2 -3 -11 -60 -34 -16 -5 -18 -37 -2
-71 -72 -59 -13 -2 -14 -20 -3 -8 -1 -6 -9 -5 -5 -23 -20 -6 -3 -9 -48 -31 -33 -41 -7 -8 -19 -9 -26 -3 -5 -12 -8 -8 -20 -15 -47 -13 -52 -31 -2 -19 -43 -2
-46 -123 -73 -36 -16 -1 -1 -3 -5 -3 -2 -2 -13 -21 -30 -35 -1 -5 -2 -5 -6 -28 -56 -39 -19 -12 -20 -3 -1 -3 -3 -2 -5 -15 -40 -21 -8 -8 -49 -72 -36 -35 -11
-40 -120 -105 -50 -35 -19 -12 -17 -2 -1 -3 -2 -4 -5 -6 -29 -4 -29 -11 -7 -10 -13 -3 -3 -5 -9 -1 -2 -2 -22 -2 -4 -8 -2 -11 -35 -46 -40 -26 -33 -69 -64 -52
Wind_Speed
24 22 21 23 24 26 26 26 25 24 20 18 14 12 11 11 13 10 11 14 17 18 19 18 19 20 20 21 19 19 20 19 19 19 19 19 18 17 15 14 17 15 15
23 24 22 23 20 23 24 23 24 23 19 17 14 12 12 13 13 11 13 14 16 17 16 18 19 20 20 20 20 20 19 18 17 17 17 17 17 15 14 12 12 14 15
24 24 25 24 24 25 24 25 24 20 18 14 12 10 10 10 8 9 10 14 16 15 18 18 19 20 19 19 19 18 17 16 16 16 19 15 14 13 12 12 12 13 14
23 25 24 24 24 25 25 25 23 20 19 18 14 10 9 6 6 5 6 9 13 15 16 16 18 18 19 19 18 17 16 13 13 15 13 13 13 11 11 12 11 12 14
23 23 21 22 23 25 25 25 26 22 18 15 16 10 8 7 8 7 6 7 13 15 15 15 16 16 17 16 17 16 14 12 11 13 10 10 12 10 10 10 11 10 11
20 19 20 20 22 24 24 25 23 23 20 19 14 14 9 5 7 15 16 16 15 15 14 15 15 15 17 16 15 14 12 12 11 11 10 10 9 8 8 9 9 9 11
20 19 20 17 19 21 22 20 21 20 17 16 16 13 9 7 4 19 19 20 21 20 14 13 14 15 16 15 14 15 13 16 17 13 6 11 8 9 10 10 9 9 10
21 21 19 16 16 17 20 19 19 19 18 16 15 13 12 6 3 27 20 20 20 20 16 10 13 17 16 14 15 16 17 17 16 16 16 17 8 8 12 16 14 9 9
23 21 20 18 15 16 18 17 18 17 16 14 14 13 11 14 28 31 23 21 20 20 18 18 17 16 16 15 15 16 16 17 18 17 18 8 14 9 26 26 26 8 8
18 18 20 17 17 17 16 16 16 16 15 13 12 11 10 14 31 33 25 22 21 20 19 17 17 17 16 16 16 16 17 18 18 18 11 18 17 17 25 27 27 17 16
19 19 19 18 17 18 18 16 16 15 15 15 14 14 13 19 31 31 27 23 22 21 19 19 18 18 17 16 17 17 18 19 19 17 17 13 11 15 19 26 24 19 18
19 19 18 17 17 16 17 14 15 13 15 15 16 16 16 17 23 28 28 24 23 22 20 19 19 18 18 19 18 17 17 14 18 17 12 13 13 19 21 21 20 19 20
17 17 16 16 15 14 18 12 11 9 8 18 15 17 18 18 20 23 27 27 24 22 22 20 19 19 18 19 19 18 13 17 18 15 19 14 12 18 21 21 21 20 19
16 17 14 15 12 15 13 11 11 8 7 7 19 16 17 16 20 20 24 24 24 23 20 22 21 19 18 19 19 18 18 16 18 19 13 13 16 18 18 18 19 19 18
14 14 11 12 12 14 5 9 8 7 6 10 21 18 16 14 15 21 23 25 24 25 24 23 21 20 19 20 19 19 19 18 18 19 15 12 13 17 17 18 18 18 17
16 14 14 12 11 12 13 11 12 6 7 6 10 17 18 17 16 17 22 23 24 24 26 22 20 21 19 20 20 20 20 20 20 19 7 12 14 16 17 18 17 17 17
17 16 14 14 11 11 9 11 10 15 8 6 7 24 13 21 10 15 18 17 22 23 24 24 23 21 22 21 21 20 20 20 21 20 21 11 13 16 15 15 16 16 15
17 15 16 13 10 9 9 8 6 6 10 9 9 8 25 17 21 11 17 7 24 24 21 23 22 21 21 22 22 21 19 20 20 21 21 21 13 15 14 14 15 15 16
16 15 14 13 10 7 7 5 7 9 6 7 11 1 24 25 25 19 24 24 25 25 25 24 23 22 20 22 19 19 22 21 22 21 20 17 21 18 15 16 13 14 15
16 16 15 12 9 7 15 8 6 7 8 6 5 8 4 26 25 25 26 25 22 26 24 25 25 24 23 22 23 22 23 21 24 19 20 16 17 18 11 11 12 17 18
15 15 14 11 11 12 9 10 7 6 6 6 5 5 3 28 24 24 26 27 25 26 26 25 24 24 23 22 23 23 21 23 21 20 22 21 8 12 21 12 18 19 16
14 12 11 11 12 12 11 12 9 8 8 8 8 10 19 26 13 21 27 29 28 27 27 25 24 23 22 19 22 19 22 17 21 22 10 12 10 10 15 19 19 21 12
13 13 11 10 9 12 14 13 11 10 10 10 8 10 14 7 8 20 20 22 29 28 25 25 25 24 22 22 23 16 18 16 21 16 10 7 7 22 21 14 14 16 17
13 12 12 12 10 12 13 14 11 11 10 8 9 7 5 6 7 14 12 15 15 1 7 24 28 24 24 19 21 25 23 15 15 15 20 16 13 21 16 21 16 18 15
13 13 14 14 13 11 11 11 10 10 8 9 8 7 6 8 6 7 4 9 8 8 15 14 22 18 12 26 20 23 24 24 21 13 21 22 23 14 18 17 20 15 12
12 11 12 13 13 12 9 8 8 7 7 8 7 7 6 6 4 5 4 1 6 1 15 7 19 12 27 27 23 20 23 23 22 24 6 15 22 23 21 10 14 24 9
Wind_Direction
102 94 91 93 95 100 100 101 98 95 87 83 74 64 61 62 61 55 48 48 56 54 54 49 53 57 59 63 61 61 63 59 57 57 55 51 48 45 35 34 47 34 34
100 104 99 97 89 97 100 99 99 96 86 82 69 61 62 64 61 51 50 46 50 51 47 52 52 57 61 62 66 69 66 61 58 56 53 47 44 37 29 26 26 35 35
102 104 106 104 103 107 104 106 104 92 89 78 61 59 53 50 39 33 38 47 50 46 55 53 54 56 59 63 67 62 62 57 56 62 72 42 36 32 27 31 30 25 31
100 108 106 106 104 108 111 111 107 102 95 87 66 57 39 11 9 352 1 24 41 48 50 44 56 54 62 66 66 60 56 43 48 74 57 38 33 23 25 30 30 27 34
104 104 99 105 105 112 114 118 120 114 98 84 74 53 39 342 301 277 293 353 42 51 48 44 42 41 54 54 59 56 47 25 335 292 343 355 38 21 10 23 29 18 29
97 94 100 106 107 112 114 119 116 118 109 105 86 70 39 18 327 234 221 214 211 60 48 48 42 40 54 56 55 47 22 21 50 11 343 346 359 5 346 324 349 2 23
98 97 103 103 107 113 117 111 113 112 106 98 95 83 42 24 320 229 203 197 166 141 52 34 31 42 63 27 27 138 100 150 215 188 90 59 22 334 305 304 308 338 8
109 109 104 98 102 109 118 117 115 114 110 105 105 90 71 53 331 211 214 202 190 177 108 262 89 151 159 143 154 188 187 185 158 149 142 167 62 333 291 265 266 320 339
118 110 112 112 103 106 118 118 121 122 122 113 103 96 94 128 180 211 202 207 191 188 165 172 167 176 186 187 180 189 184 178 204 238 178 276 95 318 211 189 197 307 20
102 105 116 112 116 119 117 123 126 125 118 111 105 98 88 118 178 191 191 193 191 191 181 166 181 197 203 199 186 179 171 170 175 200 294 145 142 259 205 193 179 140 131
111 118 118 117 120 127 130 128 132 130 125 118 116 115 105 141 182 184 185 192 203 194 187 190 199 205 209 184 195 172 170 165 158 160 110 51 333 258 221 173 160 152 155
121 124 119 120 124 125 129 118 134 126 131 128 130 126 131 133 168 183 187 185 198 196 194 194 196 198 194 189 176 160 184 117 170 148 85 46 304 222 194 148 154 160 170
123 125 119 117 118 116 144 109 114 101 99 150 128 136 147 145 158 175 184 189 192 187 196 182 190 191 206 220 191 205 157 188 178 145 133 45 345 229 172 164 166 168 165
127 133 117 123 109 138 115 119 117 110 95 117 169 141 146 139 160 156 170 177 183 198 179 201 210 213 189 205 212 185 235 247 203 191 83 11 124 192 131 145 154 162 156
128 130 118 119 120 138 53 107 110 98 63 132 191 165 144 140 143 168 173 184 186 208 216 201 204 220 219 206 185 201 209 243 213 217 277 26 48 120 124 138 142 144 141
135 132 134 130 122 136 147 137 155 58 90 89 153 167 163 158 148 149 176 179 183 190 207 196 187 214 188 206 194 202 207 210 212 232 122 54 86 112 123 135 128 127 136
139 136 140 139 128 132 122 141 142 321 20 77 60 222 147 183 109 145 163 150 172 178 186 206 207 198 214 195 201 232 198 210 208 191 204 81 93 119 114 120 130 128 128
136 133 144 136 130 127 134 114 82 27 5 14 19 14 255 292 183 125 257 73 213 216 166 188 187 189 190 198 218 209 198 206 194 197 193 206 116 127 121 116 126 135 141
133 127 135 130 118 94 109 74 120 143 46 38 354 287 269 261 239 206 227 231 214 209 214 218 193 201 175 199 175 198 207 200 203 207 223 170 221 189 139 123 112 130 143
129 132 139 122 92 62 317 126 99 123 15 105 118 138 359 263 253 243 224 229 182 208 198 205 220 229 228 223 238 254 239 201 232 235 181 149 153 159 144 86 93 147 153
128 135 137 123 126 125 136 148 114 114 107 121 123 105 334 246 258 255 233 228 203 221 214 230 197 204 212 202 251 231 197 225 189 173 192 205 79 133 184 102 167 174 149
132 127 126 135 147 162 139 152 134 132 130 130 116 139 171 223 284 268 222 226 223 228 229 238 228 225 203 254 253 268 233 283 183 182 108 129 104 96 140 176 173 207 183
122 130 131 125 126 141 156 149 144 130 69 130 96 132 157 127 147 181 177 187 210 222 253 247 243 235 201 232 206 276 264 293 238 139 107 8 13 209 195 130 131 150 161
126 117 125 128 124 132 142 153 127 132 126 115 119 91 63 130 146 173 165 167 171 125 205 269 239 261 234 267 254 226 216 307 276 270 235 149 128 194 157 187 149 164 140
130 114 122 126 126 128 127 146 131 132 102 75 94 82 98 141 132 149 128 161 160 160 176 176 195 280 297 245 273 264 256 239 257 297 253 235 217 144 167 163 180 152 130
139 115 93 110 115 119 100 101 126 101 109 57 73 49 79 86 93 117 146 133 166 196 185 164 187 291 257 255 272 274 256 253 261 241 333 273 225 232 215 126 181 213 127